Regional Weather Roundup
Issued by NWS Portland, ME

Current Version | Previous Version | Text Only | Print | Product List | Glossary Off
Versions: 1 2 3 4 5 6 7 8 9 10 11 12 13 14 15 16 17 18 19 20 21 22 23 24 25 26 27 28 29 30 31 32 33 34 35 36 37 38 39 40 41 42 43 44 45 46 47 48 49 50

000
ASUS41 KGYX 120905
RWRGYX
WEATHER ROUNDUP FOR MAINE AND NEW HAMPSHIRE
NATIONAL WEATHER SERVICE GRAY ME
400 AM EST TUE DEC 12 2017

MEZ002-005-006-010-012-015-018-020-021-024-026-027-029-121000-
MAINE

CITY           SKY/WX    TMP DP  RH WIND       PRES   REMARKS
PORTLAND       LGT SNOW  22  16  78 N8        29.98F
SANFORD        LGT SNOW  22  20  92 N8        29.96F FOG
BAR HARBOR     CLOUDY    18  14  84 NE8       30.04F
WISCASSET      CLOUDY    20  14  77 VRB3      30.00F
ROCKLAND       FLURRIES  25  22  88 NE13G18   30.00  WCI  14
FRYEBURG       LGT SNOW  20  18  92 CALM      29.97F FOG
LEWISTONAUBURN FLURRIES  18   9  68 N9        29.99F
AUGUSTA        CLOUDY    15   8  73 N8        30.01F
WATERVILLE     CLOUDY    14   9  80 N8        29.97F
BANGOR         CLOUDY    14   9  80 N7        30.05F
GREENVILLE       N/A      6   2  83 SE6       29.90F
MILLINOCKET    CLOUDY     7   4  87 CALM      30.06F
HOULTON        CLOUDY     1  -2  87 CALM      30.04S
PRESQUE ISLE   PTCLDY   -10 -14  82 CALM      30.07F
FRENCHVILLE    CLOUDY    -1  -5  82 E6        30.00F
CARIBOU        CLOUDY    -4 -10  75 N6        30.03F
$$

NHZ002-005-008-009-011-012-014-121000-
NEW HAMPSHIRE

CITY           SKY/WX    TMP DP  RH WIND       PRES   REMARKS
PORTSMOUTH     FLURRIES  29  24  83 N6        29.93F
ROCHESTER      LGT SNOW  25  24  96 VRB5      29.94F FOG
NASHUA         FLURRIES  28  26  92 NW3       29.92F
MANCHESTER     LGT SNOW  29  23  78 CALM      29.91F
CONCORD        LGT SNOW  27  23  85 CALM      29.92F FOG
LACONIA        LGT SNOW  25  22  88 E10       29.92F FOG     WCI  15
PLYMOUTH       LGT SNOW  22  21  94 CALM      29.91F
BERLIN         LGT SNOW  13  10  88 N3        29.88F FOG
WHITEFIELD     CLOUDY    16  13  88 NW3       29.85F
JAFFREY        LGT SNOW  27  25  92 CALM      29.86F FOG
KEENE          LGT SNOW  27  23  85 CALM      29.87F FOG
LEBANON        CLOUDY    25  21  85 CALM      29.86F
MT WASHINGTON  SNOW       5   5 100 S35G43      N/A  VSB 1/16WCI -20
$$

VTZ005-007-008-121000-
VERMONT

CITY           SKY/WX    TMP DP  RH WIND       PRES   REMARKS
ST JOHNSBURY     N/A     15  12  88 MISG      29.86F
MONTPELIER     LGT SNOW  15  14  95 CALM      29.84F FOG
BURLINGTON     FLURRIES  21  14  74 CALM      29.80F
$$

MAZ007-012-024-CTZ003-RIZ002-NYZ038-NYZ072-121000-
SOUTHERN NEW ENGLAND AND NY

CITY           SKY/WX    TMP DP  RH WIND       PRES   REMARKS
BOSTON         CLOUDY    36  25  64 SE5       29.92F
WORCESTER      CLOUDY    28  18  66 NE6       29.85F
NANTUCKET      CLOUDY    42  33  70 S12       29.91F
PROVIDENCE     CLOUDY    35  28  75 E5        29.90F
HARTFORD       CLOUDY    30  24  78 NE3       29.86F
ALBANY         LGT SNOW  30  25  81 SE5       29.79F VSB 1
NEW YORK CITY  CLOUDY    44  33  65 S8        29.79F
$$

ANZ081-ANZ082-ANZ150-NHZ014-MEZ023>029-121000-
COASTAL MARINE OBSERVATIONS

STATION/POSITION TIME  TEMP    WIND        PRES    WAVE
                       AIR SEA DIR/SP/G            HT/PER
                 (UTC) (F)     (DEG/KT/KT) (MB)    (FT/S)
MOUNT DESERT ROC 0900   30      20/ 20/ 23 1015.5F
MATINICUS ROCK   0800   32      60/ 18/ 20 1015.1F
ISLE OF SHOALS   0800   38     110/ 10/ 13 1013.9F
JEFFREYS LEDGE   0836      47                N/A     3/11
GEORGES BANK BUO 0750   45 51              1015.1    6/ 8
$$

.............KEY..............
   WCI - WIND CHILL
   TC  - TEMPERATURE IN CELSIUS
   VSB - VISIBILITY IN MILES
   HX  - HEAT INDEX
   FAIR- INDICATES FEW OR NO CLOUDS BELOW 12,000 FT, WITH NO
         SIGNIFICANT WEATHER AND/OR OBSTRUCTIONS TO VISIBILITY.






USA.gov is the U.S. government's official web portal to all federal, state and local government web resources and services.